When you browse on this site, cookies collect data to enhance your experience and personalize the content and advertising you see.
Visit our Privacy Policy to learn more. By continuing to use the site, you agree to this use of cookies and data.
  • In Latvia
  • List of Countries
  • For 7 days
  • Water Temperature
  • Weather Map
  • Weather Widgets
  • user-avatar
    Login

    Hourly Weather Eisenstadt

    Today, 10 December, Tuesday

    Time Temperature Precipitation Wind Pressure Humidity
    00:00 +4°C° 0 mm 1 mps 717 mmHg 88%
    01:00 +4°C° 0 mm 1 mps 717 mmHg 88%
    02:00 +3°C° 0 mm 2 mps 718 mmHg 88%
    03:00 +2°C° 0 mm 3 mps 719 mmHg 88%
    04:00 +2°C° 0 mm 3 mps 719 mmHg 88%
    05:00 +2°C° 0 mm 3 mps 720 mmHg 88%
    06:00 +1°C° 0 mm 4 mps 720 mmHg 88%
    07:00 +1°C° 0 mm 4 mps 721 mmHg 88%
    08:00 +1°C° 0 mm 5 mps 722 mmHg 83%
    09:00 +2°C° 0 mm 6 mps 723 mmHg 78%
    10:00 +2°C° 0 mm 7 mps 723 mmHg 74%
    11:00 +2°C° 0 mm 7 mps 724 mmHg 70%
    12:00 +2°C° 0 mm 7 mps 724 mmHg 66%
    13:00 +1°C° 0 mm 8 mps 725 mmHg 62%
    14:00 0°C° 0 mm 7 mps 725 mmHg 66%
    15:00 +1°C° 0 mm 6 mps 725 mmHg 70%
    16:00 0°C° 0 mm 5 mps 725 mmHg 74%
    17:00 -1°C° 0 mm 4 mps 726 mmHg 76%
    18:00 -1°C° 0 mm 4 mps 726 mmHg 78%
    19:00 -1°C° 0 mm 4 mps 727 mmHg 80%
    20:00 -2°C° 0 mm 4 mps 727 mmHg 81%
    21:00 -1°C° 0 mm 3 mps 727 mmHg 82%
    22:00 -1°C° 0 mm 3 mps 727 mmHg 83%
    23:00 -2°C° 0 mm 2 mps 727 mmHg 83%

    Tomorrow, 11 December, Wednesday

    Time Temperature Precipitation Wind Pressure Humidity
    00:00 -2°C° 0 mm 2 mps 726 mmHg 83%
    01:00 -2°C° 0 mm 2 mps 726 mmHg 84%
    02:00 0°C° 0 mm 1 mps 726 mmHg 83%
    03:00 -1°C° 0 mm 1 mps 725 mmHg 82%
    04:00 -1°C° 0 mm 1 mps 724 mmHg 81%
    05:00 -1°C° 0 mm 1 mps 724 mmHg 80%
    06:00 -1°C° 0 mm 1 mps 724 mmHg 79%
    07:00 -1°C° 0 mm 1 mps 723 mmHg 78%
    08:00 0°C° 0 mm 1 mps 723 mmHg 74%
    09:00 +1°C° 0 mm 1 mps 723 mmHg 69%
    10:00 +2°C° 0 mm 1 mps 723 mmHg 65%
    11:00 +2°C° 0 mm 2 mps 722 mmHg 62%
    12:00 +2°C° 0 mm 2 mps 721 mmHg 59%
    13:00 +3°C° 0 mm 2 mps 720 mmHg 56%
    14:00 +2°C° 0 mm 2 mps 720 mmHg 61%
    15:00 +1°C° 0 mm 2 mps 719 mmHg 67%
    16:00 -2°C° 0 mm 2 mps 718 mmHg 72%
    17:00 -2°C° 0 mm 2 mps 718 mmHg 74%
    18:00 -2°C° 0 mm 2 mps 718 mmHg 75%
    19:00 -3°C° 0 mm 2 mps 718 mmHg 76%
    20:00 -3°C° 0 mm 2 mps 718 mmHg 75%
    21:00 -3°C° 0 mm 2 mps 717 mmHg 74%
    22:00 -3°C° 0 mm 2 mps 717 mmHg 73%
    23:00 -3°C° 0 mm 2 mps 717 mmHg 72%

    Day after tomorrow, 12 December, Thursday

    Time Temperature Precipitation Wind Pressure Humidity
    00:00 -4°C° 0 mm 2 mps 717 mmHg 71%
    01:00 -4°C° 0 mm 2 mps 716 mmHg 70%
    02:00 -4°C° 0 mm 2 mps 716 mmHg 69%
    03:00 -2°C° 0 mm 1 mps 715 mmHg 68%
    04:00 -2°C° 0 mm 1 mps 715 mmHg 67%
    05:00 -2°C° 0 mm 1 mps 715 mmHg 66%
    06:00 -2°C° 0 mm 1 mps 715 mmHg 65%
    07:00 -2°C° 0 mm 1 mps 715 mmHg 64%
    08:00 -1°C° 0 mm 1 mps 715 mmHg 62%
    09:00 0°C° 0 mm 1 mps 715 mmHg 60%
    10:00 0°C° 0 mm 0 mps 715 mmHg 58%
    11:00 +1°C° 0 mm 1 mps 715 mmHg 60%
    12:00 +2°C° 0 mm 1 mps 715 mmHg 61%
    13:00 +3°C° 0 mm 1 mps 715 mmHg 63%
    14:00 +2°C° 0 mm 1 mps 714 mmHg 69%
    15:00 0°C° 0 mm 0 mps 714 mmHg 76%
    16:00 -1°C° 0 mm 0 mps 714 mmHg 83%
    17:00 -1°C° 0 mm 0 mps 714 mmHg 84%
    18:00 -2°C° 0 mm 0 mps 714 mmHg 85%
    19:00 -1°C° 0 mm 1 mps 714 mmHg 86%
    20:00 -1°C° 0 mm 1 mps 714 mmHg 86%
    21:00 -1°C° 0 mm 1 mps 714 mmHg 85%
    22:00 -1°C° 0 mm 1 mps 713 mmHg 85%
    23:00 -1°C° 0 mm 1 mps 713 mmHg 84%

    13 December, Friday

    Time Temperature Precipitation Wind Pressure Humidity
    00:00 -3°C° 0 mm 2 mps 712 mmHg 83%
    01:00 -3°C° 0 mm 2 mps 711 mmHg 82%
    02:00 -4°C° 0 mm 3 mps 711 mmHg 83%
    03:00 -4°C° 0 mm 3 mps 710 mmHg 85%
    04:00 -4°C° 0 mm 4 mps 709 mmHg 86%
    05:00 -4°C° 0 mm 4 mps 708 mmHg 88%
    06:00 -5°C° 0 mm 5 mps 707 mmHg 90%
    07:00 -5°C° 0 mm 5 mps 706 mmHg 92%
    08:00 -4°C° 0 mm 6 mps 705 mmHg 86%
    09:00 -3°C° 0 mm 7 mps 704 mmHg 81%
    10:00 -3°C° 0 mm 7 mps 704 mmHg 75%
    11:00 -2°C° 0 mm 7 mps 703 mmHg 74%
    12:00 -2°C° 0 mm 6 mps 703 mmHg 73%
    13:00 -1°C° 0 mm 6 mps 703 mmHg 72%
    14:00 -1°C° 0.1 mm 4 mps 702 mmHg 78%
    15:00 0°C° 0.1 mm 3 mps 702 mmHg 84%
    16:00 -1°C° 0.1 mm 2 mps 702 mmHg 90%
    17:00 +1°C° 1.9 mm 1 mps 703 mmHg 92%
    18:00 +1°C° 1.9 mm 1 mps 703 mmHg 95%
    19:00 +1°C° 1.9 mm 1 mps 704 mmHg 97%
    20:00 +1°C° 0.1 mm 1 mps 704 mmHg 96%
    21:00 -1°C° 0.1 mm 2 mps 704 mmHg 95%
    22:00 -1°C° 0.1 mm 2 mps 704 mmHg 94%
    23:00 -1°C° 0 mm 2 mps 705 mmHg 94%

    14 December, Saturday

    Time Temperature Precipitation Wind Pressure Humidity
    00:00 +1°C° 0 mm 1 mps 705 mmHg 94%
    01:00 +1°C° 0 mm 1 mps 705 mmHg 94%
    02:00 +1°C° 0 mm 1 mps 706 mmHg 93%
    03:00 +1°C° 0 mm 1 mps 706 mmHg 93%
    04:00 0°C° 0 mm 1 mps 706 mmHg 93%
    05:00 0°C° 0 mm 1 mps 707 mmHg 92%
    06:00 0°C° 0 mm 1 mps 707 mmHg 91%
    07:00 -3°C° 0 mm 2 mps 707 mmHg 90%
    08:00 -2°C° 0 mm 2 mps 708 mmHg 87%
    09:00 -1°C° 0 mm 2 mps 708 mmHg 84%
    10:00 +1°C° 0 mm 2 mps 708 mmHg 80%
    11:00 +1°C° 0 mm 3 mps 708 mmHg 81%
    12:00 +1°C° 0 mm 3 mps 708 mmHg 81%
    13:00 +1°C° 0 mm 4 mps 708 mmHg 81%
    14:00 +1°C° 0 mm 3 mps 709 mmHg 83%
    15:00 +1°C° 0 mm 3 mps 709 mmHg 84%
    16:00 +1°C° 0 mm 2 mps 710 mmHg 86%
    17:00 +1°C° 0 mm 2 mps 710 mmHg 86%
    18:00 -1°C° 0 mm 2 mps 711 mmHg 86%
    19:00 -1°C° 0 mm 2 mps 712 mmHg 85%
    20:00 +1°C° 0 mm 2 mps 713 mmHg 84%
    21:00 +1°C° 0 mm 2 mps 713 mmHg 83%
    22:00 +1°C° 0 mm 2 mps 714 mmHg 82%
    23:00 +1°C° 0 mm 2 mps 715 mmHg 82%

    15 December, Sunday

    Time Temperature Precipitation Wind Pressure Humidity
    00:00 +2°C° 0 mm 2 mps 716 mmHg 82%
    01:00 +2°C° 0 mm 2 mps 716 mmHg 82%
    02:00 +3°C° 0 mm 1 mps 717 mmHg 83%
    03:00 +3°C° 0 mm 1 mps 717 mmHg 85%
    04:00 +2°C° 0 mm 1 mps 718 mmHg 86%
    05:00 +2°C° 0 mm 1 mps 719 mmHg 85%
    06:00 +2°C° 0 mm 1 mps 719 mmHg 84%
    07:00 +2°C° 0 mm 1 mps 720 mmHg 83%
    08:00 +3°C° 0 mm 1 mps 720 mmHg 81%
    09:00 +3°C° 0 mm 1 mps 721 mmHg 80%
    10:00 +4°C° 0 mm 1 mps 721 mmHg 79%
    11:00 +3°C° 0 mm 2 mps 721 mmHg 79%
    12:00 +4°C° 0 mm 2 mps 721 mmHg 80%
    13:00 +4°C° 0 mm 2 mps 721 mmHg 80%
    14:00 +3°C° 0 mm 2 mps 721 mmHg 83%
    15:00 +2°C° 0 mm 2 mps 721 mmHg 86%
    16:00 +2°C° 0 mm 2 mps 721 mmHg 89%
    17:00 0°C° 0 mm 3 mps 721 mmHg 88%
    18:00 0°C° 0 mm 3 mps 721 mmHg 87%
    19:00 0°C° 0 mm 3 mps 721 mmHg 86%
    20:00 0°C° 0 mm 3 mps 721 mmHg 85%
    21:00 0°C° 0 mm 3 mps 721 mmHg 84%
    22:00 0°C° 0 mm 3 mps 721 mmHg 84%
    23:00 +1°C° 0 mm 2 mps 721 mmHg 84%
    Show more